THOR ABLESTAR DEB, 967

Orbit data source: Space-Track

THOR ABLESTAR DEB, 967 is space debris in LEO originally from a launch on Sun, 13 Dec 1964 UTC launched from the Air Force Western Test Range (AFWTR). Debris objects in space refer to the collection of defunct objects orbiting the Earth. Examples of debris include non-operational satellites, rocket bodies, and fragments generated from explosions, collisions, or faulty payload assembly.

Loading next visibility...
Identifier
967, 1964-083F
Orbit
LEO
Country
Flag of USUS
Related business
Manufacturer
Unknown
Mission
Spacecraft
Bus & Motor
Unknown
Mass
Unknown
Launch date (UTC)
1964-12-13 (61 years ago)
Launch vehicle
Unknown
Launch site
Air Force Western Test Range (AFWTR)
Object type
Payload
Rocket body
Debris
Shape & HBR
Unknown shape, 0.1 m
Radar Cross Section
Small (<0.1 m²)

Expand to show TLE details & history
Last TLE update: 15 hours ago

TLE from 15 hours ago
0 THOR ABLESTAR DEB
1   967U 64083F   26035.66723560  .00000354  00000-0  40870-3 0  9998
2   967  89.9521 174.4516 0022620  71.8809 350.4198 13.67373292 37879
Epoch: 2026-02-04T16:00Z
TLE epoch observation values (Epoch: 2026-02-04T16:00:49.155Z)
Latitude
62.34491°
Longitude
159.5072°
Altitude
1,003.32 km
Speed
7.364 km/s
True Right ascension
11h 38m 10s
True Declination
62° 12' 29"
Sunlit
Object was in full shadow at epoch
Visualization orbit readout
Latitude
Unknown
Longitude
Unknown
Altitude
Unknown
Speed
Unknown
Apparent Right ascension
Unknown
Apparent Declination
Unknown
Sunlit
N/A
Visualization observer readout
Local Sidereal Time
08:44:28
Azimuth
Unknown
Elevation
Unknown
Doppler factor
Unknown
Orbital elements
Apogee altitude
1,022.744 km
Perigee altitude
989.338 km
Semi-major axis
7,384.178 km
Eccentricity
0.00226
Inclination
89.9521°
RAAN
174.4516°
Arg. of periapsis
71.8809°
True anomaly
350.37654°
Mean anomaly
350.4198°
Eccentric anomaly
350.39818°
Mean motion
3.4205 °/min
Orbital period
105.25 mins
BSTAR
0.0004087
Loading maneuver chart data...
Computing Atmospheric mass density...

Documentation

Showing up to 5 results
|